| time (UTC) | temp C | wind direction | speed KPH | gust KPH | rain 1hr cm | rain 24hr cm | rain mn cm | humidity % | barometer mb |
| 20260506183214 | 12 | 199 | 22.5 | 30.6 | 0.00 | 0.03 | 0.03 | 94 | 1011.2 |
| 20260506182711 | 12 | 216 | 20.9 | 30.6 | 0.00 | 0.03 | 0.03 | 94 | 1011.2 |
| 20260506182209 | 12 | 189 | 22.5 | 32.2 | 0.00 | 0.03 | 0.03 | 94 | 1011.2 |
| 20260506181706 | 12 | 177 | 9.7 | 37.0 | 0.00 | 0.03 | 0.03 | 94 | 1011.2 |
| 20260506181204 | 12 | 210 | 12.9 | 25.7 | 0.00 | 0.03 | 0.03 | 94 | 1011.2 |
| 20260506180700 | 12 | 205 | 25.7 | 32.2 | 0.00 | 0.03 | 0.03 | 94 | 1011.4 |
| 20260506180156 | 12 | 186 | 20.9 | 32.2 | 0.05 | 0.03 | 0.03 | 94 | 1011.4 |
| 20260506175653 | 12 | 190 | 24.1 | 33.8 | 0.13 | 0.03 | 0.03 | 94 | 1011.3 |
| 20260506175150 | 12 | 199 | 19.3 | 27.4 | 0.13 | 0.03 | 0.03 | 94 | 1011.2 |
| 20260506174648 | 12 | 196 | 11.3 | 27.4 | 0.05 | 0.00 | 0.00 | 93 | 1011.2 |
| 20260506174145 | 12 | 192 | 20.9 | 32.2 | 0.00 | 0.00 | 0.00 | 93 | 1011.2 |
| 20260506173643 | 12 | 184 | 12.9 | 30.6 | 0.00 | 0.00 | 0.00 | 93 | 1011.4 |
| 20260506173139 | 12 | 189 | 17.7 | 32.2 | 0.00 | 0.00 | 0.00 | 93 | 1011.7 |
| 20260506172636 | 12 | 218 | 11.3 | 30.6 | 0.00 | 0.00 | 0.00 | 93 | 1011.7 |
| 20260506172133 | 12 | 202 | 14.5 | 41.8 | 0.00 | 0.00 | 0.00 | 93 | 1011.7 |
| 20260506171631 | 12 | 211 | 24.1 | 32.2 | 0.00 | 0.00 | 0.00 | 93 | 1011.9 |
| 20260506171128 | 12 | 203 | 22.5 | 32.2 | 0.00 | 0.00 | 0.00 | 92 | 1012.0 |
| 20260506170625 | 12 | 203 | 24.1 | 30.6 | 0.00 | 0.00 | 0.00 | 92 | 1012.1 |
| 20260506170122 | 12 | 200 | 14.5 | 30.6 | 0.00 | 0.00 | 0.00 | 92 | |
| 20260506165621 | 12 | 188 | 20.9 | 33.8 | 0.00 | 0.00 | 0.00 | 91 | 1012.1 |
| 20260506165116 | 12 | 213 | 19.3 | 35.4 | 0.00 | 0.00 | 0.00 | 91 | 1012.3 |
| 20260506164614 | 12 | 200 | 22.5 | 32.2 | 0.00 | 0.00 | 0.00 | 91 | 1012.3 |
| 20260506164111 | 12 | 208 | 27.4 | 38.6 | 0.00 | 0.00 | 0.00 | 91 | 1012.2 |
| 20260506163607 | 12 | 199 | 20.9 | 32.2 | 0.00 | 0.00 | 0.00 | 90 | 1012.5 |
| 20260506163103 | 12 | 218 | 20.9 | 30.6 | 0.00 | 0.00 | 0.00 | 90 | 1012.5 |
| 20260506162559 | 12 | 202 | 32.2 | 40.2 | 0.00 | 0.00 | 0.00 | 90 | 1012.2 |
| 20260506162056 | 13 | 201 | 30.6 | 35.4 | 0.00 | 0.00 | 0.00 | 90 | 1012.4 |
| 20260506161554 | 13 | 210 | 37.0 | 37.0 | 0.00 | 0.00 | 0.00 | 90 | 1012.4 |
| 20260506161046 | 13 | 201 | 14.5 | 35.4 | 0.00 | 0.00 | 0.00 | 90 | 1012.1 |
| 20260506160543 | 13 | 198 | 27.4 | 35.4 | 0.00 | 0.00 | 0.00 | 90 | 1012.2 |
| 20260506160040 | 13 | 189 | 29.0 | 37.0 | 0.00 | 0.00 | 0.00 | 90 | 1012.6 |
| 20260506155538 | 13 | 188 | 22.5 | 35.4 | 0.00 | 0.00 | 0.00 | 90 | 1012.4 |
| 20260506153714 | 13 | 202 | 17.7 | 32.2 | 0.00 | 0.00 | 0.00 | 89 | 1012.8 |
| 20260506153212 | 13 | 194 | 20.9 | 37.0 | 0.00 | 0.00 | 0.00 | 89 | 1012.8 |
| 20260506152709 | 13 | 186 | 22.5 | 35.4 | 0.00 | 0.00 | 0.00 | 89 | 1012.8 |
| 20260506152206 | 13 | 199 | 14.5 | 38.6 | 0.00 | 0.00 | 0.00 | 89 | 1012.6 |
| 20260506151706 | 13 | 199 | 25.7 | 35.4 | 0.00 | 0.00 | 0.00 | 89 | 1012.6 |
| 20260506151201 | 13 | 194 | 19.3 | 27.4 | 0.00 | 0.00 | 0.00 | 89 | 1012.6 |
| 20260506150658 | 13 | 206 | 27.4 | 33.8 | 0.00 | 0.00 | 0.00 | 89 | 1012.5 |
| 20260506150155 | 13 | 205 | 24.1 | 32.2 | 0.00 | 0.00 | 0.00 | 89 | 1012.5 |
| 20260506145652 | 13 | 210 | 30.6 | 40.2 | 0.00 | 0.00 | 0.00 | 90 | 1012.4 |
| 20260506145149 | 13 | 208 | 32.2 | 38.6 | 0.00 | 0.00 | 0.00 | 89 | 1012.6 |
| 20260506144647 | 13 | 200 | 25.7 | 35.4 | 0.00 | 0.00 | 0.00 | 90 | 1012.6 |
| 20260506144143 | 13 | 211 | 29.0 | 33.8 | 0.00 | 0.00 | 0.00 | 89 | 1012.6 |
| 20260506143641 | 13 | 202 | 19.3 | 37.0 | 0.00 | 0.00 | 0.00 | 89 | 1012.8 |
| 20260506143138 | 13 | 204 | 27.4 | 40.2 | 0.00 | 0.00 | 0.00 | 89 | 1012.9 |
| 20260506142637 | 13 | 195 | 20.9 | 38.6 | 0.00 | 0.00 | 0.00 | 88 | 1012.8 |
| 20260506142134 | 13 | 205 | 19.3 | 32.2 | 0.00 | 0.00 | 0.00 | 88 | 1012.8 |
| 20260506141632 | 13 | 194 | 20.9 | 33.8 | 0.00 | 0.00 | 0.00 | 87 | 1012.8 |
| 20260506141130 | 13 | 205 | 32.2 | 37.0 | 0.00 | 0.00 | 0.00 | 87 | 1012.8 |
| 20260506140627 | 13 | 207 | 14.5 | 38.6 | 0.00 | 0.00 | 0.00 | 88 | 1012.9 |
| 20260506140124 | 13 | 203 | 11.3 | 37.0 | 0.00 | 0.00 | 0.00 | 88 | 1013.0 |
| 20260506135621 | 13 | 206 | 29.0 | 37.0 | 0.00 | 0.00 | 0.00 | 88 | 1013.0 |
| 20260506135117 | 13 | 215 | 14.5 | 37.0 | 0.00 | 0.00 | 0.00 | 89 | 1013.0 |
| 20260506134614 | 13 | 199 | 27.4 | 38.6 | 0.00 | 0.00 | 0.00 | 90 | 1013.0 |
| 20260506134109 | 13 | 205 | 19.3 | 37.0 | 0.00 | 0.00 | 0.00 | 89 | 1013.5 |
| 20260506133607 | 13 | 206 | 16.1 | 43.5 | 0.00 | 0.00 | 0.00 | 89 | 1013.0 |
| 20260506133104 | 13 | 217 | 22.5 | 35.4 | 0.00 | 0.00 | 0.00 | 89 | 1012.9 |
| 20260506132601 | 13 | 192 | 14.5 | 30.6 | 0.00 | 0.00 | 0.00 | 89 | 1013.2 |
| 20260506132058 | 13 | 205 | 22.5 | 29.0 | 0.00 | 0.00 | 0.00 | 90 | 1013.2 |
| 20260506131556 | 13 | 203 | 19.3 | 30.6 | 0.00 | 0.00 | 0.00 | 90 | 1013.2 |
| 20260506131052 | 13 | 206 | 25.7 | 29.0 | 0.00 | 0.00 | 0.00 | 90 | 1012.9 |
| 20260506130549 | 13 | 210 | 24.1 | 27.4 | 0.00 | 0.00 | 0.00 | 90 | 1013.2 |
| 20260506130046 | 13 | 190 | 16.1 | 27.4 | 0.00 | 0.00 | 0.00 | 90 | 1013.2 |
| 20260506125545 | 13 | 195 | 24.1 | 30.6 | 0.00 | 0.00 | 0.00 | 89 | 1013.0 |
| 20260506125042 | 13 | 183 | 24.1 | 25.7 | 0.00 | 0.00 | 0.00 | 89 | 1013.0 |
| 20260506124539 | 13 | 201 | 20.9 | 32.2 | 0.00 | 0.00 | 0.00 | 90 | 1013.1 |
| 20260506124037 | 13 | 222 | 16.1 | 32.2 | 0.00 | 0.00 | 0.00 | 90 | 1013.1 |
| 20260506123535 | 13 | 213 | 14.5 | 30.6 | 0.00 | 0.00 | 0.00 | 89 | 1013.3 |
| 20260506123033 | 13 | 177 | 12.9 | 29.0 | 0.00 | 0.00 | 0.00 | 90 | 1013.3 |
| 20260506122529 | 13 | 206 | 6.4 | 30.6 | 0.00 | 0.00 | 0.00 | 90 | 1013.3 |
| 20260506122028 | 13 | 190 | 9.7 | 27.4 | 0.00 | 0.00 | 0.00 | 90 | 1013.5 |
| 20260506121525 | 13 | 186 | 16.1 | 27.4 | 0.00 | 0.00 | 0.00 | 90 | 1013.5 |
| 20260506121021 | 13 | 201 | 20.9 | 35.4 | 0.00 | 0.00 | 0.00 | 91 | 1013.3 |
| 20260506120519 | 13 | 214 | 24.1 | 35.4 | 0.00 | 0.00 | 0.00 | 91 | 1013.7 |
| 20260506120016 | 13 | 206 | 27.4 | 32.2 | 0.00 | 0.00 | 0.00 | 91 | 1013.4 |
| 20260506115514 | 13 | 202 | 19.3 | 40.2 | 0.00 | 0.00 | 0.00 | 91 | 1013.3 |
| 20260506115012 | 13 | 196 | 14.5 | 29.0 | 0.00 | 0.00 | 0.00 | 91 | 1013.3 |
| 20260506114509 | 13 | 219 | 25.7 | 37.0 | 0.00 | 0.00 | 0.00 | 92 | 1013.3 |
| 20260506114008 | 12 | 206 | 16.1 | 30.6 | 0.00 | 0.00 | 0.00 | 92 | 1013.1 |
| 20260506113505 | 12 | 206 | 17.7 | 35.4 | 0.00 | 0.00 | 0.00 | 92 | 1013.4 |
| 20260506113001 | 12 | 195 | 11.3 | 27.4 | 0.00 | 0.00 | 0.00 | 92 | 1013.2 |
| 20260506112459 | 12 | 195 | 29.0 | 35.4 | 0.00 | 0.00 | 0.00 | 92 | 1013.4 |
| 20260506111956 | 12 | 202 | 22.5 | 30.6 | 0.00 | 0.00 | 0.00 | 93 | 1013.3 |
| 20260506111454 | 12 | 201 | 12.9 | 32.2 | 0.00 | 0.00 | 0.00 | 93 | 1013.3 |
| 20260506110951 | 12 | 195 | 24.1 | 30.6 | 0.00 | 0.00 | 0.00 | 93 | 1013.2 |
| 20260506110449 | 12 | 193 | 17.7 | 33.8 | 0.00 | 0.00 | 0.00 | 93 | 1013.1 |
| 20260506105945 | 12 | 198 | 12.9 | 38.6 | 0.00 | 0.00 | 0.00 | 93 | 1013.1 |
| 20260506105441 | 12 | 208 | 24.1 | 40.2 | 0.00 | 0.00 | 0.00 | 93 | 1013.1 |
| 20260506104939 | 12 | 194 | 25.7 | 45.1 | 0.00 | 0.00 | 0.00 | 93 | 1013.3 |
| 20260506104437 | 12 | 196 | 12.9 | 33.8 | 0.00 | 0.00 | 0.00 | 93 | 1013.3 |
| 20260506103935 | 12 | 196 | 20.9 | 29.0 | 0.00 | 0.00 | 0.00 | 93 | 1013.3 |
| 20260506103432 | 12 | 201 | 19.3 | 29.0 | 0.00 | 0.00 | 0.00 | 93 | 1013.4 |
| 20260506102928 | 12 | 203 | 17.7 | 33.8 | 0.00 | 0.00 | 0.00 | 93 | 1013.1 |
| 20260506102427 | 12 | 197 | 9.7 | 29.0 | 0.00 | 0.00 | 0.00 | 93 | 1013.4 |
| 20260506101924 | 12 | 197 | 29.0 | 33.8 | 0.00 | 0.00 | 0.00 | 94 | 1013.1 |
| 20260506101420 | 12 | 195 | 20.9 | 33.8 | 0.00 | 0.00 | 0.00 | 94 | 1013.0 |
| 20260506100917 | 12 | 208 | 19.3 | 32.2 | 0.00 | 0.00 | 0.00 | 94 | 1013.0 |
| 20260506100416 | 12 | 191 | 20.9 | 37.0 | 0.00 | 0.00 | 0.00 | 94 | 1012.9 |
| 20260506095913 | 12 | 201 | 12.9 | 30.6 | 0.00 | 0.00 | 0.00 | 94 | 1013.2 |
| 20260506095411 | 12 | 208 | 29.0 | 37.0 | 0.00 | 0.00 | 0.00 | 94 | 1013.0 |
| 20260506094907 | 12 | 194 | 11.3 | 35.4 | 0.00 | 0.00 | 0.00 | 94 | 1013.2 |
| 20260506094406 | 12 | 195 | 20.9 | 35.4 | 0.00 | 0.00 | 0.00 | 94 | 1013.0 |
| 20260506093903 | 12 | 186 | 25.7 | 40.2 | 0.00 | 0.00 | 0.00 | 94 | 1012.9 |
| 20260506093401 | 12 | 202 | 25.7 | 32.2 | 0.00 | 0.00 | 0.00 | 94 | 1013.0 |
| 20260506092859 | 12 | 188 | 20.9 | 32.2 | 0.00 | 0.00 | 0.00 | 94 | 1013.2 |
| 20260506092356 | 12 | 205 | 16.1 | 37.0 | 0.00 | 0.00 | 0.00 | 94 | 1013.1 |
| 20260506091852 | 12 | 214 | 22.5 | 32.2 | 0.00 | 0.00 | 0.00 | 94 | 1012.9 |
| 20260506091351 | 12 | 209 | 20.9 | 33.8 | 0.00 | 0.00 | 0.00 | 94 | 1012.9 |
| 20260506090848 | 12 | 196 | 20.9 | 37.0 | 0.00 | 0.00 | 0.00 | 94 | 1013.3 |
| 20260506090345 | 12 | 198 | 20.9 | 32.2 | 0.00 | 0.00 | 0.00 | 94 | 1013.2 |
| 20260506085842 | 12 | 196 | 16.1 | 32.2 | 0.00 | 0.00 | 0.00 | 94 | 1013.1 |
| 20260506085338 | 12 | 212 | 19.3 | 35.4 | 0.00 | 0.00 | 0.00 | 94 | 1013.3 |
| 20260506084835 | 12 | 203 | 22.5 | 30.6 | 0.00 | 0.00 | 0.00 | 94 | 1013.3 |
| 20260506084332 | 12 | 210 | 14.5 | 35.4 | 0.00 | 0.00 | 0.00 | 93 | 1013.3 |
| 20260506083828 | 12 | 206 | 12.9 | 30.6 | 0.00 | 0.00 | 0.00 | 93 | 1013.3 |
| 20260506083326 | 12 | 209 | 25.7 | 33.8 | 0.00 | 0.00 | 0.00 | 93 | 1013.4 |
| 20260506082823 | 12 | 212 | 14.5 | 35.4 | 0.00 | 0.00 | 0.00 | 93 | 1013.4 |
| 20260506082319 | 12 | 208 | 20.9 | 33.8 | 0.00 | 0.00 | 0.00 | 93 | 1013.4 |
| 20260506081816 | 12 | 204 | 19.3 | 41.8 | 0.00 | 0.00 | 0.00 | 93 | 1013.5 |
| 20260506081314 | 12 | 217 | 22.5 | 35.4 | 0.00 | 0.00 | 0.00 | 93 | 1013.4 |
| 20260506080811 | 12 | 214 | 30.6 | 35.4 | 0.00 | 0.00 | 0.00 | 93 | 1013.6 |
| 20260506080307 | 12 | 202 | 17.7 | 32.2 | 0.00 | 0.00 | 0.00 | 93 | 1013.3 |
| 20260506073251 | 12 | 222 | 20.9 | 32.2 | 0.00 | 0.00 | 0.00 | 92 | 1013.5 |
| 20260506072748 | 12 | 218 | 30.6 | 41.8 | 0.00 | 0.00 | 0.00 | 92 | 1013.7 |
| 20260506072246 | 12 | 219 | 19.3 | 35.4 | 0.00 | 0.00 | 0.00 | 91 | 1013.9 |
| 20260506071744 | 12 | 208 | 27.4 | 37.0 | 0.00 | 0.00 | 0.00 | 91 | 1013.8 |
| 20260506071241 | 12 | 208 | 19.3 | 33.8 | 0.00 | 0.00 | 0.00 | 91 | 1013.8 |
| 20260506070738 | 12 | 204 | 30.6 | 38.6 | 0.00 | 0.00 | 0.00 | 91 | 1013.6 |
| 20260506070235 | 12 | 204 | 20.9 | 40.2 | 0.00 | 0.00 | 0.00 | 91 | 1013.5 |
| 20260506062212 | 12 | 207 | 22.5 | 35.4 | 0.00 | 0.00 | 0.00 | 90 | 1013.6 |
| 20260506061708 | 12 | 205 | 20.9 | 33.8 | 0.00 | 0.00 | 0.00 | 90 | 1013.7 |
| 20260506061205 | 12 | 198 | 16.1 | 32.2 | 0.00 | 0.00 | 0.00 | 90 | 1013.6 |
| 20260506060704 | 12 | 197 | 20.9 | 35.4 | 0.00 | 0.00 | 0.00 | 90 | 1013.4 |
| 20260506060200 | 12 | 194 | 20.9 | 30.6 | 0.00 | 0.00 | 0.00 | 90 | 1013.7 |
| 20260506051132 | 13 | 216 | 22.5 | 38.6 | 0.00 | 0.00 | 0.00 | 89 | 1013.7 |
| 20260506050631 | 13 | 209 | 27.4 | 40.2 | 0.00 | 0.00 | 0.00 | 89 | 1013.7 |
| 20260506050127 | 13 | 196 | 29.0 | 41.8 | 0.00 | 0.00 | 0.00 | 89 | 1013.8 |
| 20260506045121 | 13 | 213 | 40.2 | 51.5 | 0.00 | 0.00 | 0.00 | 89 | 1013.8 |
| 20260506044619 | 13 | 203 | 20.9 | 41.8 | 0.00 | 0.00 | 0.00 | 88 | 1013.9 |
| 20260506044115 | 13 | 212 | 32.2 | 43.5 | 0.00 | 0.00 | 0.00 | 88 | 1014.0 |
| 20260506043612 | 13 | 210 | 22.5 | 40.2 | 0.00 | 0.00 | 0.00 | 88 | 1013.7 |
| 20260506043111 | 13 | 206 | 27.4 | 40.2 | 0.00 | 0.00 | 0.00 | 88 | 1013.8 |
| 20260506042609 | 13 | 223 | 25.7 | 40.2 | 0.00 | 0.00 | 0.00 | 88 | 1013.6 |
| 20260506042107 | 13 | 226 | 22.5 | 40.2 | 0.00 | 0.00 | 0.00 | 88 | 1013.9 |
| 20260506041606 | 13 | 208 | 35.4 | 41.8 | 0.00 | 0.00 | 0.00 | 88 | 1013.9 |
| 20260506041102 | 13 | 206 | 35.4 | 49.9 | 0.00 | 0.00 | 0.00 | 88 | 1013.5 |
| 20260506040600 | 13 | 208 | 32.2 | 43.5 | 0.00 | 0.00 | 0.00 | 88 | 1013.9 |
| 20260506040056 | 13 | 215 | 25.7 | 45.1 | 0.00 | 0.00 | 0.00 | 88 | 1013.9 |
| 20260506035553 | 13 | 213 | 20.9 | 43.5 | 0.00 | 0.00 | 0.00 | 89 | 1013.5 |
| 20260506035050 | 13 | 206 | 38.6 | 43.5 | 0.00 | 0.00 | 0.00 | 89 | 1013.6 |
| 20260506034547 | 13 | 220 | 19.3 | 38.6 | 0.00 | 0.00 | 0.00 | 88 | 1013.8 |
| 20260506034044 | 12 | 208 | 19.3 | 41.8 | 0.00 | 0.00 | 0.00 | 88 | 1014.0 |
| 20260506033541 | 12 | 208 | 24.1 | 37.0 | 0.00 | 0.00 | 0.00 | 88 | 1013.7 |
| 20260506033038 | 13 | 184 | 12.9 | 35.4 | 0.00 | 0.00 | 0.00 | 88 | 1013.9 |
| 20260506032535 | 12 | 199 | 17.7 | 37.0 | 0.00 | 0.00 | 0.00 | 88 | 1013.9 |
| 20260506032032 | 12 | 200 | 16.1 | 33.8 | 0.00 | 0.00 | 0.00 | 88 | 1013.7 |
| 20260506031530 | 12 | 208 | 22.5 | 32.2 | 0.00 | 0.00 | 0.00 | 88 | 1013.9 |
| 20260506031026 | 12 | 205 | 19.3 | 32.2 | 0.00 | 0.00 | 0.00 | 88 | 1013.9 |
| 20260506030525 | 12 | 198 | 22.5 | 35.4 | 0.00 | 0.00 | 0.00 | 88 | 1013.9 |
| 20260506030022 | 12 | 213 | 14.5 | 41.8 | 0.00 | 0.00 | 0.00 | 88 | 1014.1 |
| 20260506025518 | 12 | 211 | 25.7 | 37.0 | 0.00 | 0.00 | 0.00 | 88 | 1013.9 |
| 20260506025015 | 12 | 215 | 24.1 | 41.8 | 0.00 | 0.00 | 0.00 | 89 | 1014.1 |
| 20260506024512 | 12 | 212 | 14.5 | 37.0 | 0.00 | 0.00 | 0.00 | 88 | 1014.1 |
| 20260506024008 | 12 | 199 | 22.5 | 30.6 | 0.00 | 0.00 | 0.00 | 88 | 1013.9 |
| 20260506023504 | 12 | 209 | 19.3 | 32.2 | 0.00 | 0.00 | 0.00 | 89 | 1013.9 |
| 20260506023001 | 12 | 209 | 22.5 | 41.8 | 0.00 | 0.00 | 0.00 | 89 | 1014.1 |
| 20260506022459 | 12 | 193 | 25.7 | 38.6 | 0.00 | 0.00 | 0.00 | 89 | 1014.0 |
| 20260506021956 | 12 | 204 | 24.1 | 37.0 | 0.00 | 0.00 | 0.00 | 88 | 1014.0 |
| 20260506021454 | 12 | 204 | 19.3 | 35.4 | 0.00 | 0.00 | 0.00 | 88 | 1014.2 |
| 20260506020951 | 12 | 203 | 17.7 | 33.8 | 0.00 | 0.00 | 0.00 | 88 | 1013.8 |
| 20260506020448 | 13 | 208 | 29.0 | 32.2 | 0.00 | 0.00 | 0.00 | 88 | 1014.1 |
| 20260506015945 | 13 | 211 | 22.5 | 40.2 | 0.00 | 0.00 | 0.00 | 87 | 1013.9 |
| 20260506015443 | 13 | 209 | 20.9 | 32.2 | 0.00 | 0.00 | 0.00 | 87 | 1013.9 |
| 20260506014939 | 13 | 211 | 17.7 | 33.8 | 0.00 | 0.00 | 0.00 | 87 | 1013.8 |
| 20260506014436 | 13 | 197 | 16.1 | 32.2 | 0.00 | 0.00 | 0.00 | 87 | 1013.7 |
| 20260506013933 | 13 | 209 | 25.7 | 30.6 | 0.00 | 0.00 | 0.00 | 87 | 1013.8 |
| 20260506013431 | 13 | 199 | 20.9 | 32.2 | 0.00 | 0.00 | 0.00 | 87 | 1013.9 |
| 20260506012927 | 13 | 204 | 16.1 | 30.6 | 0.00 | 0.00 | 0.00 | 87 | 1013.9 |
| 20260506012424 | 13 | 203 | 12.9 | 38.6 | 0.00 | 0.00 | 0.00 | 87 | 1013.6 |
| 20260506011921 | 13 | 201 | 19.3 | 37.0 | 0.00 | 0.00 | 0.00 | 87 | 1013.6 |
| 20260506011418 | 13 | 218 | 17.7 | 40.2 | 0.00 | 0.00 | 0.00 | 87 | 1013.7 |
| 20260506010915 | 13 | 215 | 22.5 | 32.2 | 0.00 | 0.00 | 0.00 | 86 | 1013.5 |
| 20260506010414 | 13 | 199 | 24.1 | 37.0 | 0.00 | 0.00 | 0.00 | 86 | 1013.6 |
| 20260506005909 | 13 | 209 | 29.0 | 37.0 | 0.00 | 0.00 | 0.00 | 86 | 1013.8 |
| 20260506005408 | 13 | 218 | 25.7 | 32.2 | 0.00 | 0.00 | 0.00 | 86 | 1013.6 |
| 20260506004902 | 13 | 217 | 27.4 | 41.8 | 0.00 | 0.00 | 0.00 | 86 | 1013.7 |
| 20260506004400 | 13 | 204 | 22.5 | 40.2 | 0.00 | 0.00 | 0.00 | 86 | 1013.8 |
| 20260506003856 | 13 | 208 | 30.6 | 41.8 | 0.00 | 0.00 | 0.00 | 86 | 1013.5 |
| 20260506003352 | 13 | 213 | 22.5 | 33.8 | 0.00 | 0.00 | 0.00 | 86 | 1013.5 |
| 20260506002849 | 13 | 204 | 33.8 | 35.4 | 0.00 | 0.00 | 0.00 | 85 | 1013.6 |
| 20260506002345 | 13 | 205 | 27.4 | 35.4 | 0.00 | 0.00 | 0.00 | 85 | 1013.1 |
| 20260506001841 | 13 | 200 | 25.7 | 38.6 | 0.00 | 0.00 | 0.00 | 84 | 1013.1 |
| 20260506001338 | 13 | 208 | 25.7 | 46.7 | 0.00 | 0.00 | 0.00 | 84 | 1012.8 |
| 20260506000835 | 13 | 215 | 27.4 | 43.5 | 0.00 | 0.00 | 0.00 | 84 | 1012.8 |
| 20260506000333 | 13 | 207 | 20.9 | 45.1 | 0.00 | 0.00 | 0.00 | 85 | 1013.1 |
| 20260505235830 | 13 | 201 | 35.4 | 49.9 | 0.00 | 0.00 | 0.00 | 85 | 1012.7 |
| 20260505235327 | 13 | 211 | 24.1 | 41.8 | 0.00 | 0.00 | 0.00 | 85 | 1012.6 |
| 20260505234824 | 13 | 212 | 35.4 | 40.2 | 0.00 | 0.00 | 0.00 | 85 | 1012.3 |
| 20260505234322 | 13 | 198 | 30.6 | 41.8 | 0.00 | 0.00 | 0.00 | 84 | 1012.3 |
| 20260505233818 | 13 | 202 | 24.1 | 43.5 | 0.00 | 0.00 | 0.00 | 84 | 1012.3 |
| 20260505233316 | 13 | 208 | 32.2 | 48.3 | 0.00 | 0.00 | 0.00 | 84 | 1012.1 |
| 20260505232813 | 13 | 220 | 32.2 | 48.3 | 0.00 | 0.00 | 0.00 | 84 | 1012.4 |
| 20260505232311 | 13 | 203 | 25.7 | 43.5 | 0.00 | 0.00 | 0.00 | 84 | 1012.3 |
| 20260505231808 | 13 | 208 | 29.0 | 45.1 | 0.00 | 0.00 | 0.00 | 84 | 1012.2 |
| 20260505231306 | 13 | 215 | 30.6 | 40.2 | 0.00 | 0.00 | 0.00 | 84 | 1012.1 |
| 20260505230804 | 13 | 204 | 32.2 | 43.5 | 0.00 | 0.00 | 0.00 | 84 | 1012.0 |
| 20260505230300 | 13 | 211 | 27.4 | 41.8 | 0.00 | 0.00 | 0.00 | 84 | 1012.1 |
| 20260505225757 | 13 | 199 | 27.4 | 41.8 | 0.00 | 0.00 | 0.00 | 84 | 1011.9 |
| 20260505225254 | 13 | 201 | 33.8 | 40.2 | 0.00 | 0.00 | 0.00 | 84 | 1012.1 |
| 20260505224749 | 13 | 193 | 19.3 | 43.5 | 0.00 | 0.00 | 0.00 | 84 | 1011.6 |
| 20260505224247 | 13 | 208 | 25.7 | 40.2 | 0.00 | 0.00 | 0.00 | 83 | 1012.0 |
| 20260505223744 | 13 | 199 | 27.4 | 41.8 | 0.00 | 0.00 | 0.00 | 83 | 1012.0 |
| 20260505223240 | 13 | 230 | 22.5 | 41.8 | 0.00 | 0.00 | 0.00 | 83 | 1012.0 |
| 20260505222736 | 13 | 208 | 30.6 | 43.5 | 0.00 | 0.00 | 0.00 | 83 | 1011.8 |
| 20260505222233 | 14 | 214 | 22.5 | 38.6 | 0.00 | 0.00 | 0.00 | 83 | 1011.8 |
| 20260505221730 | 14 | 189 | 17.7 | 49.9 | 0.00 | 0.00 | 0.00 | 82 | 1011.7 |
| 20260505221227 | 14 | 199 | 22.5 | 37.0 | 0.00 | 0.00 | 0.00 | 82 | 1011.5 |
| 20260505220723 | 14 | 206 | 29.0 | 40.2 | 0.00 | 0.00 | 0.00 | 82 | 1011.7 |
| 20260505220221 | 14 | 200 | 24.1 | 38.6 | 0.00 | 0.00 | 0.00 | 82 | 1011.9 |
| 20260505215719 | 14 | 188 | 19.3 | 38.6 | 0.00 | 0.00 | 0.00 | 83 | 1011.6 |
| 20260505215217 | 13 | 204 | 17.7 | 45.1 | 0.00 | 0.00 | 0.00 | 83 | 1011.7 |
| 20260505214714 | 13 | 215 | 22.5 | 43.5 | 0.00 | 0.00 | 0.00 | 83 | 1011.7 |
| 20260505214212 | 13 | 203 | 38.6 | 41.8 | 0.00 | 0.00 | 0.00 | 83 | 1011.4 |
| 20260505213709 | 13 | 198 | 24.1 | 45.1 | 0.00 | 0.00 | 0.00 | 82 | 1011.3 |
| 20260505213206 | 14 | 213 | 35.4 | 45.1 | 0.00 | 0.00 | 0.00 | 82 | 1011.3 |
| 20260505212702 | 14 | 186 | 25.7 | 35.4 | 0.00 | 0.00 | 0.00 | 82 | 1011.3 |
| 20260505212159 | 14 | 185 | 17.7 | 48.3 | 0.00 | 0.00 | 0.00 | 82 | 1011.3 |
| 20260505211656 | 14 | 194 | 27.4 | 40.2 | 0.00 | 0.00 | 0.00 | 82 | 1011.3 |
| 20260505211153 | 14 | 208 | 38.6 | 43.5 | 0.00 | 0.00 | 0.00 | 82 | 1011.1 |
| 20260505210650 | 14 | 204 | 25.7 | 43.5 | 0.00 | 0.00 | 0.00 | 82 | 1011.1 |
| 20260505210147 | 14 | 207 | 22.5 | 38.6 | 0.00 | 0.00 | 0.00 | 81 | 1011.1 |
| 20260505205644 | 14 | 203 | 24.1 | 46.7 | 0.00 | 0.00 | 0.00 | 81 | 1011.2 |
| 20260505205142 | 14 | 202 | 25.7 | 43.5 | 0.00 | 0.00 | 0.00 | 81 | 1011.3 |
| 20260505204638 | 14 | 197 | 24.1 | 41.8 | 0.00 | 0.00 | 0.00 | 80 | 1011.3 |
| 20260505204137 | 14 | 198 | 33.8 | 40.2 | 0.00 | 0.00 | 0.00 | 81 | 1011.1 |
| 20260505203633 | 14 | 216 | 24.1 | 38.6 | 0.00 | 0.00 | 0.00 | 81 | 1011.1 |
| 20260505203130 | 14 | 200 | 20.9 | 40.2 | 0.00 | 0.00 | 0.00 | 81 | 1011.1 |
| 20260505202626 | 14 | 220 | 12.9 | 40.2 | 0.00 | 0.00 | 0.00 | 81 | 1011.3 |
| 20260505202122 | 14 | 199 | 20.9 | 43.5 | 0.00 | 0.00 | 0.00 | 81 | 1011.2 |
| 20260505201619 | 14 | 199 | 29.0 | 41.8 | 0.00 | 0.00 | 0.00 | 81 | 1011.2 |
| 20260505201117 | 14 | 210 | 22.5 | 38.6 | 0.00 | 0.00 | 0.00 | 81 | 1011.2 |
| 20260505200614 | 14 | 202 | 20.9 | 37.0 | 0.00 | 0.00 | 0.00 | 81 | 1011.2 |
| 20260505200111 | 14 | 197 | 24.1 | 41.8 | 0.00 | 0.00 | 0.00 | 81 | 1011.5 |
| 20260505195607 | 14 | 181 | 37.0 | 41.8 | 0.00 | 0.00 | 0.00 | 82 | 1011.5 |
| 20260505195105 | 14 | 203 | 12.9 | 38.6 | 0.00 | 0.00 | 0.00 | 82 | 1011.3 |
| 20260505194602 | 14 | 183 | 16.1 | 43.5 | 0.00 | 0.00 | 0.00 | 83 | 1011.5 |
| 20260505194057 | 14 | 196 | 32.2 | 33.8 | 0.00 | 0.00 | 0.00 | 82 | 1011.6 |
| 20260505193555 | 14 | 196 | 27.4 | 30.6 | 0.00 | 0.00 | 0.00 | 82 | 1011.8 |
| 20260505193052 | 14 | 188 | 12.9 | 35.4 | 0.00 | 0.00 | 0.00 | 82 | 1011.8 |
| 20260505192550 | 14 | 207 | 22.5 | 35.4 | 0.00 | 0.00 | 0.00 | 82 | 1012.0 |
| 20260505192047 | 14 | 200 | 14.5 | 30.6 | 0.00 | 0.00 | 0.00 | 82 | 1011.9 |
| 20260505191545 | 14 | 202 | 14.5 | 29.0 | 0.00 | 0.00 | 0.00 | 83 | 1012.3 |
| 20260505191043 | 13 | 185 | 27.4 | 35.4 | 0.00 | 0.00 | 0.00 | 83 | 1012.2 |
| 20260505190537 | 14 | 172 | 20.9 | 32.2 | 0.00 | 0.00 | 0.00 | 83 | 1012.5 |
| 20260505190034 | 14 | 186 | 30.6 | 33.8 | 0.00 | 0.00 | 0.00 | 82 | 1012.5 |
| 20260505185531 | 14 | 194 | 22.5 | 29.0 | 0.00 | 0.00 | 0.00 | 81 | 1012.6 |
| 20260505185027 | 14 | 191 | 27.4 | 37.0 | 0.00 | 0.00 | 0.00 | 82 | 1012.6 |
| 20260505184524 | 14 | 204 | 20.9 | 32.2 | 0.00 | 0.00 | 0.00 | 82 | 1012.6 |
| 20260505184021 | 14 | 194 | 29.0 | 35.4 | 0.00 | 0.00 | 0.00 | 82 | 1012.7 |
| 20260505183518 | 14 | 189 | 17.7 | 37.0 | 0.00 | 0.00 | 0.00 | 82 | 1012.9 |